Location: La Trinit�
(48.1620°N, 3.4512°W)
Time: 03:24:29
(UTC+00:00)

Cosmos 2369 Rocket - Pass Details

Date: 08 May 2021
Orbit: 827 x 854 km, 71.0° (Epoch: 13 June)

Event Time Altitude Azimuth Distance (km) Brightness Sun altitude
Exits shadow 23:03:36 20° 96° (E) 1,850 3.7 -22.8°
Drops below altitude 10° 23:07:15 10° 55° (NE) 2,458 4.8 -23.0°
Sets 23:10:19 0° 39° (NE) 3,403 5.8 -23.1°
